Theta_e
285 285 285 285 286 285 285 286 287 287 288 289 291 292 293 291 292 292 293 291 292 293
284 284 283 284 284 284 285 286 286 286 287 288 289 289 289 289 289 289 290 290 290 291
283 283 283 283 283 283 284 284 285 285 286 287 287 287 287 287 287 287 288 289 288 289
282 282 282 282 282 282 283 283 284 284 285 284 284 284 284 285 285 285 287 287 286 286
281 281 280 280 281 282 281 283 283 284 283 283 283 283 282 282 283 283 284 284 284 283
279 279 279 280 280 281 281 281 282 282 281 281 282 282 282 281 282 282 282 282 281 281
278 278 278 279 279 280 280 280 280 280 281 281 282 282 281 281 280 280 281 281 281 280
278 278 278 278 279 280 280 279 279 279 279 280 281 282 280 279 279 278 278 279 279 279
277 278 278 278 278 279 279 278 277 278 278 277 281 283 282 279 278 277 277 277 277 278
277 277 277 278 278 278 278 278 276 277 277 276 278 282 281 279 277 276 276 276 275 275
276 276 277 277 277 277 277 277 276 276 276 276 278 281 281 278 276 276 274 275 274 274
276 276 276 275 275 276 276 277 276 276 275 275 275 280 279 276 275 275 273 274 273 273
275 275 274 275 275 276 276 276 276 275 275 274 274 277 277 276 274 272 270 272 271 273
274 274 274 274 274 275 275 274 274 273 272 272 272 273 276 276 273 272 268 269 268 269
Wind_Speed
7 4 5 6 4 4 3 4 5 5 6 6 8 8 8 7 7 8 6 9 7 4
6 7 6 6 5 4 5 6 6 6 6 8 9 9 7 7 8 7 6 7 6 5
5 6 6 6 6 6 6 6 6 7 7 9 10 9 8 7 8 8 6 6 7 7
5 6 6 6 5 6 6 6 6 6 8 10 10 10 9 9 10 9 8 8 8 9
6 6 6 6 6 5 6 6 6 6 10 10 10 10 10 9 8 8 9 9 9 9
5 5 5 5 5 5 6 7 8 9 9 9 10 10 10 8 7 7 9 8 8 9
5 5 5 5 5 5 6 8 8 8 7 8 8 9 9 8 8 8 8 8 8 9
5 5 4 5 5 6 8 9 8 8 7 6 8 8 9 8 7 7 7 8 9 8
5 5 5 5 5 6 8 10 9 8 6 6 7 17 17 11 7 8 9 8 8 7
5 6 5 5 7 8 8 9 9 8 6 6 5 16 17 14 7 8 9 9 9 9
6 6 6 6 7 7 7 7 7 8 7 6 7 15 16 14 9 8 10 8 9 9
6 7 6 6 6 5 6 6 7 7 7 7 7 16 18 13 7 8 9 8 10 10
5 7 7 6 5 4 5 6 6 7 8 8 7 15 16 12 6 8 8 9 11 15
6 6 6 5 5 4 4 6 4 7 7 7 8 8 14 17 8 7 6 6 7 8
Wind_Direction
45 55 53 52 56 54 46 53 24 24 33 27 27 26 39 39 36 36 42 30 19 11
49 55 57 46 41 45 35 51 32 31 36 39 43 39 43 49 39 38 34 31 19 21
61 60 58 51 43 45 44 40 36 37 38 52 43 38 40 45 34 37 29 35 25 18
70 66 64 61 39 41 43 38 37 26 52 53 46 35 35 36 31 29 33 27 27 19
76 72 66 62 55 44 50 36 32 29 66 54 46 38 33 33 22 26 31 28 24 24
79 80 75 68 61 55 53 45 45 49 59 54 46 38 29 23 24 31 36 31 27 20
86 88 82 78 71 67 66 62 57 49 65 49 46 45 35 28 28 34 33 30 30 33
98 93 91 87 78 71 70 75 55 59 47 31 42 37 40 27 35 31 32 34 29 32
112 102 91 81 82 78 82 80 73 60 46 22 37 36 39 32 36 31 31 32 24 14
118 107 101 97 87 78 73 84 80 77 66 29 11 35 35 27 29 34 27 30 22 12
111 112 110 99 92 92 90 93 86 77 68 48 19 37 29 24 23 35 26 22 22 12
131 125 115 105 94 91 93 96 94 84 73 55 12 34 26 24 14 22 23 8 25 5
122 118 117 111 104 86 103 101 91 92 64 53 28 24 22 32 13 19 12 2 11 5
108 112 113 115 110 91 89 79 92 89 66 40 35 14 21 22 27 25 10 0 2 352